Погода в Рогани

Украина / Харьковская область     49°54′17″N   36°29′05″E
темп.,
°C
ветер,
м/с
пор.,
м/с
влажн.,
%
обл.,
%
осадки,
мм/ч
давл.,
гПа
погр.,
м
7 мая, пт
пт700:00+9ссз5789100 0.8 1012354
03:00+9ссз3690100 3.1 1013474
06:00+8сз369580 0.0 1014288
09:00+12ссз23675 0.0 1015697
12:00+16з234599 0.0 10152014
15:00+17юз3438100 0.0 10152333
18:00+16ю35475 0.0 10141078
21:00+12ююв485911 0.0 1014196
8 мая, сб
сб800:00+11юв51363100 0.0 1013344
03:00+11ююв61561100 0.0 1012491
06:00+11ююв51482100 0.4 1010553
09:00+12ю71680100 0.6 1009747
12:00+13ююз81592100 3.1 10081135
15:00+12ююз61192100 7.9 1008940
18:00+12з6985100 0.7 1009812
21:00+9зсз41086100 1.0 1012749
9 мая, вс
вс900:00+7зсз61083100 0.0 1013709
03:00+6сз61181100 0.1 1014906
06:00+6сз51075100 0.0 10151087
09:00+8сз6964100 0.0 1018962
12:00+11ссз795026 0.0 10171893
15:00+12с7104789 0.1 10192186
18:00+11ссз610545 0.1 10211894
21:00+7ссз39725 0.2 1023373
10 мая, пн
пн1000:00+6сз410764 0.0 1023294
03:00+5ссз513735 0.0 1025344
06:00+5ссз514701 0.0 1025383
09:00+10с81355100 0.0 10241464
12:00+13с91446100 0.0 10221671
15:00+12с91553100 0.0 10211571
18:00+10с91666100 0.2 1020938
21:00+11ссв91775100 0.3 1020749
11 мая, вт
вт1100:00+11ссв81878100 0.0 1019664
03:00+11ссв71583100 0.0 1019519
06:00+10ссв7158988 0.0 1018440
09:00+13ссв8178171 0.0 1018817
12:00+12в8137783 0.1 10201145
15:00+13в8115832 0.1 10211546
18:00+12вюв7136966 0.1 10231551
21:00+7в4784100 0.1 1024334